TimePDT,TemperatureF,Dew PointF,Humidity,Sea Level PressureIn,VisibilityMPH,Wind Direction,Wind SpeedMPH,Gust SpeedMPH,PrecipitationIn,Events,Conditions,WindDirDegrees,DateUTC
12:53 AM,77.0,36.0,23,29.88,10.0,ESE,9.2,-,N/A,,Clear,110,2013-07-24 07:53:00
1:53 AM,73.0,37.9,28,29.90,10.0,SW,4.6,-,N/A,,Clear,220,2013-07-24 08:53:00
2:53 AM,75.0,39.0,27,29.92,10.0,South,11.5,-,N/A,,Clear,180,2013-07-24 09:53:00
3:53 AM,73.0,43.0,34,29.93,10.0,South,5.8,-,N/A,,Clear,170,2013-07-24 10:53:00
4:53 AM,73.9,46.0,37,29.93,10.0,South,8.1,-,N/A,,Clear,170,2013-07-24 11:53:00
5:53 AM,73.9,46.9,38,29.94,10.0,South,6.9,-,N/A,,Clear,170,2013-07-24 12:53:00
6:53 AM,75.0,48.0,38,29.94,10.0,South,8.1,-,N/A,,Clear,190,2013-07-24 13:53:00
7:53 AM,81.0,45.0,28,29.94,10.0,SW,9.2,-,N/A,,Clear,220,2013-07-24 14:53:00
8:53 AM,82.9,43.0,24,29.94,10.0,SW,10.4,-,N/A,,Clear,230,2013-07-24 15:53:00
9:53 AM,86.0,41.0,20,29.95,10.0,WSW,10.4,-,N/A,,Clear,240,2013-07-24 16:53:00
10:53 AM,88.0,39.0,18,29.94,10.0,WSW,12.7,19.6,N/A,,Clear,240,2013-07-24 17:53:00
11:53 AM,90.0,39.0,17,29.93,10.0,SW,6.9,16.1,N/A,,Clear,230,2013-07-24 18:53:00
12:53 PM,91.9,37.9,15,29.92,10.0,SW,10.4,16.1,N/A,,Clear,230,2013-07-24 19:53:00
1:53 PM,95.0,35.1,12,29.91,10.0,Variable,5.8,-,N/A,,Clear,0,2013-07-24 20:53:00
2:53 PM,95.0,36.0,13,29.89,10.0,SSW,5.8,-,N/A,,Clear,210,2013-07-24 21:53:00
3:53 PM,98.1,34.0,11,29.87,10.0,SW,9.2,-,N/A,,Clear,220,2013-07-24 22:53:00
4:53 PM,98.1,30.9,9,29.86,10.0,SSW,6.9,-,N/A,,Clear,200,2013-07-24 23:53:00
5:53 PM,98.1,30.0,9,29.86,10.0,SSW,8.1,-,N/A,,Clear,200,2013-07-25 00:53:00
6:53 PM,97.0,28.0,9,29.85,10.0,South,5.8,-,N/A,,Clear,190,2013-07-25 01:53:00
7:53 PM,95.0,26.1,9,29.86,10.0,Calm,Calm,-,N/A,,Clear,0,2013-07-25 02:53:00
8:53 PM,82.0,44.1,26,29.87,10.0,East,5.8,-,N/A,,Clear,80,2013-07-25 03:53:00
9:53 PM,80.1,43.0,27,29.88,10.0,ESE,5.8,-,N/A,,Clear,120,2013-07-25 04:53:00
10:53 PM,77.0,39.9,26,29.88,10.0,ESE,6.9,-,N/A,,Clear,120,2013-07-25 05:53:00
11:53 PM,77.0,39.9,26,29.88,10.0,ESE,8.1,-,N/A,,Clear,110,2013-07-25 06:53:00